COSMOS 1275 DEB, 17639

Orbit data source: Space-Track

COSMOS 1275 DEB, 17639 is space debris in LEO originally from a launch on Thu, 04 Jun 1981 UTC launched from the Plesetsk Missile And Space Complex (PKMTR). Debris objects in space refer to the collection of defunct objects orbiting the Earth. Examples of debris include non-operational satellites, rocket bodies, and fragments generated from explosions, collisions, or faulty payload assembly.

Loading next visibility...
Identifier
17639, 1981-053LJ
Orbit
LEO
Country
Flag of CISCIS
Related business
Manufacturer
Unknown
Mission
Spacecraft
Bus & Motor
Unknown
Mass
Unknown
Launch date (UTC)
1981-06-04 (44 years ago)
Launch vehicle
Unknown
Launch site
Plesetsk Missile And Space Complex (PKMTR)
Object type
Payload
Rocket body
Debris
Shape & HBR
Unknown shape, 0.1 m
Radar Cross Section
Small (<0.1 m²)

Expand to show TLE details & history
Last TLE update: 1 day ago

TLE from 1 day ago
0 COSMOS 1275 DEB
1 17639U 81053LJ  25295.43812693  .00001499  00000-0  17578-2 0  9995
2 17639  82.9937 287.7794 0157552 101.6614  29.1582 13.62492535998827
Epoch: 2025-10-22T10:30Z
TLE epoch observation values (Epoch: 2025-10-22T10:30:54.166Z)
Latitude
47.90395°
Longitude
-88.83501°
Altitude
932.648 km
Speed
7.441 km/s
True Right ascension
06h 40m 00s
True Declination
47° 44' 13"
Sunlit
Object was in daylight at epoch
Visualization orbit readout
Latitude
Unknown
Longitude
Unknown
Altitude
Unknown
Speed
Unknown
Apparent Right ascension
Unknown
Apparent Declination
Unknown
Sunlit
N/A
Visualization observer readout
Local Sidereal Time
08:52:48
Azimuth
Unknown
Elevation
Unknown
Doppler factor
Unknown
Orbital elements
Apogee altitude
1,140.43 km
Perigee altitude
907.191 km
Semi-major axis
7,401.948 km
Eccentricity
0.01576
Inclination
82.9937°
RAAN
287.7794°
Arg. of periapsis
101.6614°
True anomaly
30.05318°
Mean anomaly
29.1582°
Eccentric anomaly
29.60414°
Mean motion
3.40819 °/min
Orbital period
105.63 mins
BSTAR
0.0017578
Loading maneuver chart data...
Computing Atmospheric mass density...

Documentation

Showing up to 5 results
|